Regional Weather Roundup
Issued by NWS Charleston, WV

Home | Current Version | Previous Version | Text Only | Print | Product List | Glossary Off
Versions: 1 2 3 4 5 6 7 8 9 10 11 12 13 14 15 16 17 18 19 20 21 22 23 24 25 26 27 28 29 30 31 32 33 34 35 36 37 38 39 40 41 42 43 44 45 46 47 48 49 50

815
ASUS41 KRLX 182010
RWRRLX
West Virginia Regional Weather Roundup
National Weather Service Charleston WV
400 PM EDT WED OCT 18 2017

Note: "fair" indicates few or no clouds below 12,000 feet with no
significant weather and/or obstructions to visibility.

WVZ003-182100-
Northern Panhandle of West Virginia

CITY           SKY/WX    TMP DP  RH WIND       PRES   REMARKS
WHEELING       SUNNY     69  40  34 CALM      30.24F
$$

WVZ009-182100-
Northwest West Virginia

CITY           SKY/WX    TMP DP  RH WIND       PRES   REMARKS
PARKERSBURG    SUNNY     70  35  27 S7        30.27F
$$

WVZ006-182100-
Western West Virginia

CITY           SKY/WX    TMP DP  RH WIND       PRES   REMARKS
HUNTINGTON     SUNNY     70  41  34 SE7       30.25F
$$

WVZ015-182100-
West Central West Virginia

CITY           SKY/WX    TMP DP  RH WIND       PRES   REMARKS
CHARLESTON     MOSUNNY   72  41  32 CALM      30.26F
$$

WVZ022-031-182100-
North Central West Virginia

CITY           SKY/WX    TMP DP  RH WIND       PRES   REMARKS
CLARKSBURG     SUNNY     70  30  22 SW5       30.26F
MORGANTOWN     SUNNY     73  32  22 VRB5      30.26F
$$

WVZ025-035-042-045-182100-
Southern West Virginia

CITY           SKY/WX    TMP DP  RH WIND       PRES   REMARKS
BECKLEY        SUNNY     67  38  34 SE8       30.30F
LOGAN            N/A     70  39  32 CALM      30.27F
BLUEFIELD      SUNNY     66  26  22 SW5       30.32F
LEWISBURG      SUNNY     67  37  32 E6        30.32F
$$

WVZ047-182100-
Northern Mountains of West Virginia

CITY           SKY/WX    TMP DP  RH WIND       PRES   REMARKS
ELKINS         SUNNY     73  32  22 VRB5      30.27F
$$

WVZ052-182100-
Eastern Panhandle of West Virginia

CITY           SKY/WX    TMP DP  RH WIND       PRES   REMARKS
MARTINSBURG    SUNNY     69  41  36 S6        30.29F
PETERSBURG     SUNNY     72  39  30 E3        30.27F
$$




USA.gov is the U.S. government's official web portal to all federal, state and local government web resources and services.